Location: Unspecified
(42.9300°N, 71.1866°W)
Time: 06:40:58
(UTC-04:00)

Cosmos 1674 - Visible Passes

Search period start: 24 July 2014 00:00
Search period end: 03 August 2014 00:00
Orbit: 516 x 543 km, 82.5° (Epoch: 22 July)

Date Brightness Start Highest point End Pass type
(mag) Time Alt. Az. Time Alt. Az. Time Alt. Az.
25 Jul 2.7 04:54:58 10° N 04:58:53 88° W 05:02:43 10° S visible
26 Jul 2.8 04:44:19 10° N 04:48:13 85° E 04:52:03 10° S visible
27 Jul 2.9 04:33:39 10° N 04:37:32 79° E 04:41:22 10° S visible
28 Jul 3.0 04:22:59 10° N 04:26:52 72° E 04:30:41 10° SSE visible
29 Jul 3.1 04:12:19 10° N 04:16:11 66° E 04:19:59 10° SSE visible
30 Jul 3.2 04:01:40 10° N 04:05:30 61° E 04:09:17 10° SSE visible
31 Jul 3.4 03:51:00 10° N 03:54:49 55° E 03:58:34 10° SSE visible
01 Aug 3.5 03:40:21 10° N 03:44:08 51° E 03:47:51 10° SSE visible
02 Aug 3.6 03:29:42 10° N 03:33:27 47° ENE 03:36:39 13° SSE visible
